Jacksonville, FL

2:16 PM EDT on June 25, 2018 (GMT -0400)
Jacksonville International

Weather History for KJAX - August, 2017

Change the Weather History Date:

Sunday, August 13, 2017

  Actual Average Record
Temperature  
Mean Temperature 85 °F 82 °F  
Max Temperature 94 °F 91 °F 99 °F (1954)
Min Temperature 75 °F 73 °F 64 °F (1890)
Degree Days  
Heating Degree Days 0 0  
Month to date heating degree days 0 0  
Since 1 June heating degree days 0 0  
Since 1 July heating degree days 0 0  
Cooling Degree Days 20 17  
Month to date cooling degree days 228 222  
Year to date cooling degree days 1880 1691  
Since 1 June cooling degree days 1224 1207  
Growing Degree Days 34 (Base 50)    
Moisture  
Dew Point 76 °F    
Average Humidity 78    
Maximum Humidity 100    
Minimum Humidity 56    
Precipitation  
Precipitation T in 0.21 in 2.34 in (2004)
Month to date precipitation 4.56 2.62  
Year to date precipitation 43.21 31.18  
Snow  
Snow 0.00 in 0.00 in 0.00 in (2002)
Month to date snowfall 0.0 0.0  
Since 1 June snowfall 0.0 0.0  
Since 1 July snowfall 0.0 0.0  
Snow Depth 0.00 in    
Sea Level Pressure  
Sea Level Pressure 29.96 in    
Wind  
Wind Speed 4 mph (SSW)    
Max Wind Speed 18 mph    
Max Gust Speed 22 mph    
Visibility 10 miles    
Events Rain , Thunderstorm    
T = Trace of Precipitation, MM = Missing Value Source: NWS Daily Summary

Daily Weather History Graph

Daily Weather History Graph

Search for Another Location

Airport or City:

Astronomy

Aug. 13, 2017 Rise Set
Actual Time 6:52 AM EDT 8:10 PM EDT
Civil Twilight 6:27 AM EDT 8:35 PM EDT
Nautical Twilight 5:56 AM EDT 9:05 PM EDT
Astronomical Twilight 5:25 AM EDT 9:36 PM EDT
Moon No Moon Rise 12:26 PM EDT (8/13)
Length of Visible Light 14h 08m
Length of Day
13h 17m
Waning Gibbous, 65% of the Moon is Illuminated
Aug 13
Waning Gibbous
Aug 14
Last Quarter
Aug 21
New
Aug 29
First Quarter
Sep 6
Full

Hourly Weather History & Observations

Time (EDT) Temp. Heat Index Dew Point Humidity Pressure Visibility Wind Dir Wind Speed Gust Speed Precip Events Conditions
12:56 AM 78.1 °F - 77.0 °F 96% 29.98 in 10.0 mi SSW 4.6 mph - N/A   Scattered Clouds
1:56 AM 77.0 °F - 77.0 °F 100% 29.95 in 10.0 mi South 3.5 mph - N/A   Partly Cloudy
2:56 AM 77.0 °F - 75.9 °F 96% 29.95 in 10.0 mi SSW 3.5 mph - N/A   Partly Cloudy
3:56 AM 75.9 °F - 75.9 °F 100% 29.94 in 10.0 mi Calm Calm - N/A   Partly Cloudy
4:56 AM 75.9 °F - 75.9 °F 100% 29.94 in 10.0 mi Calm Calm - N/A   Partly Cloudy
5:56 AM 75.9 °F - 75.9 °F 100% 29.94 in 10.0 mi Calm Calm - N/A   Partly Cloudy
6:56 AM 75.9 °F - 75.9 °F 100% 29.96 in 10.0 mi South 3.5 mph - N/A   Scattered Clouds
7:56 AM 78.1 °F - 77.0 °F 96% 29.98 in 10.0 mi SSW 4.6 mph - N/A   Scattered Clouds
8:56 AM 81.0 °F 88.6 °F 78.1 °F 91% 29.99 in 10.0 mi WSW 8.1 mph - N/A   Scattered Clouds
9:56 AM 84.0 °F 93.7 °F 77.0 °F 79% 29.99 in 10.0 mi SW 6.9 mph - N/A   Mostly Cloudy
10:56 AM 86.0 °F 96.0 °F 75.9 °F 72% 29.99 in 10.0 mi WSW 6.9 mph - N/A   Mostly Cloudy
11:56 AM 89.1 °F 100.2 °F 75.9 °F 65% 29.99 in 10.0 mi West 5.8 mph - N/A   Mostly Cloudy
12:42 PM 90.0 °F 99.0 °F 73.9 °F 59% 29.97 in 10.0 mi SSW 9.2 mph - N/A   Mostly Cloudy
12:56 PM 91.0 °F 101.6 °F 75.0 °F 59% 29.96 in 10.0 mi Variable 5.8 mph - N/A   Mostly Cloudy
1:56 PM 91.0 °F 99.3 °F 73.0 °F 55% 29.95 in 10.0 mi SSW 5.8 mph - N/A   Mostly Cloudy
2:56 PM 93.0 °F 103.2 °F 73.9 °F 54% 29.93 in 10.0 mi Calm Calm - N/A   Mostly Cloudy
3:22 PM 82.0 °F 90.2 °F 77.0 °F 85% 29.93 in 10.0 mi South 15.0 mph - 0.00 in Rain , Thunderstorm Light Thunderstorms and Rain
3:56 PM 80.1 °F 85.8 °F 77.0 °F 90% 29.93 in 8.0 mi SSW 6.9 mph - 0.00 in Rain , Thunderstorm Light Thunderstorms and Rain
4:56 PM 80.1 °F 85.8 °F 77.0 °F 90% 29.95 in 10.0 mi SSW 4.6 mph - 0.00 in Thunderstorm Thunderstorm
5:21 PM 80.1 °F 85.8 °F 77.0 °F 90% 29.95 in 10.0 mi SE 3.5 mph - 0.00 in   Mostly Cloudy
5:56 PM 80.1 °F 86.4 °F 78.1 °F 94% 29.95 in 10.0 mi West 6.9 mph - 0.00 in   Mostly Cloudy
6:56 PM 79.0 °F - 77.0 °F 94% 29.94 in 10.0 mi SSW 6.9 mph - N/A   Mostly Cloudy
7:56 PM 79.0 °F - 77.0 °F 94% 29.94 in 10.0 mi Calm Calm - N/A   Mostly Cloudy
8:56 PM 78.1 °F - 77.0 °F 96% 29.94 in 10.0 mi Calm Calm - N/A   Mostly Cloudy
9:56 PM 77.0 °F - 77.0 °F 100% 29.98 in 10.0 mi West 3.5 mph - N/A   Mostly Cloudy
10:56 PM 78.1 °F - 77.0 °F 96% 30.00 in 10.0 mi SSW 4.6 mph - N/A   Mostly Cloudy
11:56 PM 78.1 °F - 77.0 °F 96% 29.99 in 10.0 mi South 6.9 mph - N/A   Mostly Cloudy